Regional Weather Roundup
Issued by NWS

Home | Current Version | Previous Version | Graphics & Text | Print | Product List | Glossary On
Versions: 1 2 3 4 5 6 7 8 9 10 11 12 13 14 15 16 17 18 19 20 21 22 23 24 25 26 27 28 29 30 31 32 33 34 35 36 37 38 39 40 41 42 43 44 45 46 47 48 49 50
962
ASUS44 KLIX 251710
RWRLA
LOUISIANA WEATHER ROUNDUP
NATIONAL WEATHER SERVICE NEW ORLEANS LA
1200 PM CDT SAT OCT 25 2014

NOTE: "FAIR" INDICATES FEW OR NO CLOUDS BELOW 12,000 FEET WITH NO
      SIGNIFICANT WEATHER AND/OR OBSTRUCTIONS TO VISIBILITY.
      SKY/WX - SKY CONDITION AND SIGNIFICANT WEATHER.
      TMP - AIR TEMPERATURE.    DP   - DEWPOINT TEMPERATURE.
      RH  - RELATIVE HUMIDITY.  PRES - PRESSURE.
      HX  - HEAT INDEX.         WCI  - WIND CHILL INDEX.

*  THESE STATIONS ARE NOT NWS OR FAA STATIONS AND ARE NOT UNDER
   NWS QUALITY CONTROL.

LAZ040-048-061>063-065-066-069-251800-
SOUTHEAST LOUISIANA

CITY           SKY/WX    TMP DP  RH WIND       PRES   REMARKS
N.O. AUDUBON     N/A     79  56  45 MISG        N/A
N.O. INTL ARPT SUNNY     73  51  46 NE6       30.16F
N.O. LAKEFRONT SUNNY     71  54  54 VRB5      30.16F
N.O. DOWNTOWN* FAIR      73  48  40 NE6       30.16F
SLIDELL        SUNNY     75  53  46 NE7       30.14F
BATON ROUGE    SUNNY     75  53  46 VRB6      30.16F
BOOTHVILLE     SUNNY     73  54  51 NE8       30.15S
BELLE CHASSE   SUNNY     75  50  41 NE8       30.15F
BOGALUSA*      FAIR      76  51  41 NE5       30.16F
NEW ROADS*     FAIR      74  54  50 CALM      30.17F
GONZALES*      FAIR      74  53  48 NE5       30.16F
HAMMOND*       SUNNY     77  50  38 CALM      30.16F
HOUMA*         SUNNY     75  54  46 NE7       30.16F
PORT FOURCHON* SUNNY     72  54  53 NE13      30.18F

$$

LAZ041-044-053-054-251800-
SOUTHWEST LOUISIANA

CITY           SKY/WX    TMP DP  RH WIND       PRES   REMARKS
LAKE CHARLES   SUNNY     75  50  41 NE5       30.17F
LAFAYETTE      SUNNY     76  52  43 CALM      30.17F
PATTERSON      SUNNY     75  54  46 NE6       30.18F
SALT POINT       N/A     77  53  43 VRB5      30.15F
NEW IBERIA     SUNNY     77  51  40 N5        30.17F
CHENAULT AIRPK NOT AVBL

$$

LAZ027-028-251800-
CENTRAL LOUISIANA

CITY           SKY/WX    TMP DP  RH WIND       PRES   REMARKS
FORT POLK      SUNNY     75  54  47 VRB2      30.17F
ALEXANDRIA INT SUNNY     75  55  49 CALM      30.16F
ALEXANDRIA     SUNNY     76  57  51 CALM      30.17F

$$

LAZ001-002-251800-
NORTHWEST LOUISIANA

CITY           SKY/WX    TMP DP  RH WIND       PRES   REMARKS
SHREVEPORT     SUNNY     78  59  51 W8        30.16F
BARKSDALE AFB  SUNNY     78  58  51 VRB6      30.16F
DTN SHREVEPORT SUNNY     76  58  53 SW8       30.16F

$$

LAZ014-016-251800-
NORTHEAST LOUISIANA

CITY           SKY/WX    TMP DP  RH WIND       PRES   REMARKS
MONROE         SUNNY     75  56  51 SW5       30.17F
TALLULAH       SUNNY     76  56  49 CALM      30.17F

$$




USA.gov is the U.S. government's official web portal to all federal, state and local government web resources and services.